Vorticity
8 11 12 13 11 9 7 7 10 12 10 11 5 0 -1 -2 -1 4 4 7 8 8 7 6 4 5 7 13 20 12 14 16 6 2 3 10 17 16
7 8 8 12 13 12 10 8 10 10 11 8 6 4 5 7 8 11 14 13 11 9 8 8 9 11 12 10 10 9 15 15 19 23 19 -0 5 10
1 3 11 13 11 11 12 7 9 10 9 9 6 8 12 12 11 7 5 6 7 6 5 4 3 4 8 9 9 8 11 8 6 6 11 15 27 22
4 -1 10 12 7 13 13 10 10 9 11 14 11 12 10 9 7 6 6 7 8 7 6 13 19 17 12 13 8 7 7 8 12 12 8 8 -2 8
4 2 6 12 10 14 12 10 9 14 12 7 8 9 5 6 4 7 12 12 19 24 22 16 14 15 26 41 27 11 9 7 6 8 9 11 10 9
8 -0 3 8 10 14 14 11 13 12 8 11 10 7 6 6 12 13 18 20 14 13 13 13 12 12 14 15 15 29 32 14 9 8 7 11 8 10
12 -4 -2 8 8 15 13 12 13 10 10 9 7 7 8 11 15 15 13 10 17 11 15 14 13 12 12 12 15 20 17 22 24 14 13 7 8 10
12 8 1 7 8 17 12 13 12 12 8 5 7 10 13 14 14 11 14 14 11 11 7 7 11 18 20 20 20 23 29 22 18 24 18 16 10 9
12 8 4 7 11 18 13 15 13 10 6 7 12 16 13 10 10 14 13 11 8 7 10 16 6 2 5 1 5 1 3 25 37 21 19 21 15 10
7 7 7 8 16 16 13 16 10 6 6 13 16 13 13 15 16 14 9 7 11 12 8 8 3 -1 2 3 1 2 3 -3 5 47 27 17 22 12
7 4 7 13 18 13 15 16 5 8 14 15 14 16 13 10 14 9 11 16 16 7 -0 -1 0 8 12 12 13 7 4 6 -2 18 45 27 20 16
1 6 14 16 15 12 19 8 5 13 14 15 20 11 3 9 6 7 6 6 4 5 10 11 9 10 9 11 9 7 6 7 7 8 35 40 18 25
3 8 13 20 13 15 14 1 11 13 12 19 20 2 1 6 3 3 6 9 10 9 9 8 10 10 8 8 8 13 15 16 17 23 29 37 29 22
2 13 17 17 10 18 4 9 14 12 18 20 10 -1 8 3 7 12 12 10 9 11 14 18 24 32 37 41 40 32 30 28 26 26 27 26 35 22
19 13 23 12 13 11 6 15 13 19 19 12 6 7 5 12 13 10 10 19 24 37 50 50 42 33 28 28 28 23 25 22 25 29 28 21 39 25
15 19 16 7 18 4 15 12 18 18 11 6 8 8 13 8 11 21 28 24 48 28 31 33 33 36 36 37 38 37 31 29 30 33 30 22 30 27
14 20 9 12 12 12 12 18 17 10 6 5 10 8 7 14 21 9 6 17 27 17 19 16 15 15 15 17 16 16 31 33 28 31 32 23 24 34
22 10 7 17 9 12 18 16 12 7 5 8 5 9 13 20 12 20 16 21 20 21 20 20 22 23 20 19 14 15 13 16 23 26 31 26 23 32
12 6 15 9 14 14 17 15 9 5 7 4 9 10 21 11 20 18 9 8 17 19 16 21 25 24 26 26 17 15 20 24 19 20 26 32 22 27
7 10 15 11 11 19 15 12 5 4 6 5 16 16 15 16 10 1 2 4 10 12 15 16 21 21 23 23 24 19 19 26 36 27 23 32 28 26
7 18 9 12 16 16 15 10 3 5 4 14 9 27 15 6 15 12 7 4 14 17 11 3 6 9 17 24 17 12 16 22 32 34 26 29 34 24
15 11 13 11 19 15 13 7 4 8 9 13 19 20 6 5 8 10 16 20 19 17 13 14 12 7 4 9 16 20 18 19 30 34 36 32 35 24
15 11 12 17 18 13 11 6 5 4 16 7 29 5 1 4 5 7 13 19 18 18 15 15 12 11 14 17 8 2 10 21 24 32 39 32 34 30
Height
5665 5660 5654 5649 5644 5639 5634 5630 5627 5625 5622 5619 5618 5617 5616 5614 5612 5609 5607 5605 5603 5603 5602 5602 5603 5604 5604 5605 5605 5605 5606 5609 5612 5617 5623 5628 5634 5639
5654 5649 5643 5638 5633 5628 5624 5620 5616 5613 5611 5609 5606 5604 5602 5600 5598 5596 5594 5591 5589 5587 5586 5585 5585 5585 5586 5586 5586 5587 5589 5590 5592 5597 5603 5608 5613 5618
5643 5637 5631 5626 5621 5617 5612 5608 5605 5602 5599 5595 5593 5590 5587 5584 5583 5581 5579 5577 5573 5570 5568 5567 5566 5564 5564 5564 5564 5565 5568 5571 5574 5578 5582 5585 5591 5598
5631 5625 5619 5614 5609 5603 5599 5595 5591 5588 5586 5582 5578 5576 5573 5569 5566 5563 5560 5557 5553 5549 5546 5544 5542 5541 5541 5541 5541 5543 5546 5549 5553 5557 5562 5566 5569 5574
5619 5613 5608 5601 5596 5591 5585 5581 5577 5573 5570 5568 5564 5561 5558 5554 5550 5545 5540 5537 5533 5527 5524 5521 5519 5517 5517 5517 5518 5519 5522 5525 5530 5533 5538 5543 5549 5555
5606 5600 5594 5588 5583 5578 5573 5568 5564 5560 5556 5553 5550 5546 5541 5536 5532 5528 5523 5518 5514 5510 5507 5505 5501 5498 5496 5496 5497 5497 5497 5500 5504 5509 5513 5520 5528 5534
5592 5587 5581 5575 5568 5562 5558 5553 5549 5545 5541 5538 5534 5529 5523 5518 5512 5508 5506 5502 5498 5493 5491 5488 5484 5482 5479 5477 5475 5475 5476 5477 5479 5483 5488 5497 5504 5512
5577 5572 5567 5561 5554 5549 5543 5538 5534 5530 5525 5522 5517 5512 5505 5500 5495 5492 5488 5485 5483 5477 5475 5473 5468 5467 5464 5461 5457 5454 5454 5454 5456 5459 5464 5471 5480 5489
5562 5558 5552 5547 5540 5534 5530 5524 5518 5514 5510 5505 5500 5493 5489 5483 5479 5474 5470 5468 5465 5462 5456 5455 5450 5449 5447 5444 5439 5435 5433 5431 5431 5434 5440 5446 5455 5465
5548 5543 5538 5531 5525 5520 5515 5510 5505 5498 5493 5489 5483 5478 5473 5468 5463 5458 5454 5450 5448 5442 5435 5435 5432 5428 5426 5423 5418 5414 5411 5407 5407 5408 5413 5421 5430 5440
5532 5528 5523 5516 5510 5506 5501 5496 5490 5484 5478 5472 5467 5462 5457 5452 5447 5442 5438 5433 5430 5425 5417 5409 5408 5404 5401 5400 5394 5390 5386 5383 5382 5383 5384 5392 5404 5415
5519 5513 5507 5502 5495 5491 5486 5481 5476 5470 5464 5458 5452 5448 5443 5437 5431 5425 5419 5413 5408 5404 5393 5384 5381 5372 5375 5374 5368 5363 5358 5356 5355 5356 5356 5364 5376 5389
5505 5499 5493 5488 5483 5477 5472 5467 5462 5457 5451 5445 5440 5436 5430 5424 5417 5409 5400 5391 5384 5377 5365 5353 5351 5344 5334 5338 5341 5332 5326 5326 5325 5328 5328 5334 5348 5363
5491 5485 5479 5474 5469 5464 5458 5453 5448 5443 5438 5433 5428 5424 5418 5411 5402 5392 5382 5369 5356 5346 5337 5320 5313 5307 5300 5299 5299 5299 5295 5295 5295 5299 5302 5308 5321 5338
5478 5472 5465 5460 5456 5451 5445 5440 5435 5430 5425 5421 5417 5411 5404 5395 5385 5374 5362 5347 5333 5316 5301 5288 5279 5278 5273 5270 5268 5267 5266 5268 5268 5272 5277 5286 5298 5314
5464 5459 5453 5448 5443 5439 5433 5428 5424 5419 5415 5412 5406 5399 5390 5380 5369 5356 5344 5328 5313 5299 5284 5272 5264 5259 5255 5249 5244 5244 5242 5242 5246 5249 5255 5266 5279 5294
5450 5446 5441 5436 5431 5427 5422 5417 5412 5409 5406 5401 5394 5386 5377 5366 5354 5341 5329 5316 5301 5289 5278 5267 5258 5250 5245 5239 5234 5228 5227 5227 5227 5231 5236 5248 5261 5275
5438 5434 5429 5424 5420 5416 5411 5407 5403 5400 5396 5390 5382 5374 5364 5352 5341 5330 5319 5306 5293 5280 5269 5259 5251 5243 5236 5230 5221 5220 5219 5216 5216 5219 5222 5232 5246 5258
5426 5422 5418 5413 5409 5405 5401 5398 5394 5390 5385 5379 5371 5362 5352 5342 5332 5323 5312 5299 5287 5274 5263 5252 5243 5234 5228 5223 5215 5207 5207 5207 5208 5210 5211 5218 5234 5246
5415 5411 5407 5403 5399 5395 5391 5389 5385 5381 5376 5369 5360 5352 5343 5334 5325 5315 5305 5294 5282 5270 5259 5248 5239 5230 5223 5217 5212 5205 5197 5196 5197 5201 5201 5207 5221 5234
5405 5400 5397 5393 5389 5386 5383 5380 5377 5372 5367 5359 5351 5343 5335 5328 5319 5310 5299 5288 5276 5266 5256 5246 5237 5229 5221 5213 5207 5202 5197 5190 5189 5190 5191 5198 5211 5225
5395 5391 5387 5384 5380 5377 5375 5372 5368 5364 5358 5351 5344 5336 5330 5323 5314 5305 5294 5283 5272 5261 5252 5243 5235 5227 5219 5212 5205 5199 5194 5188 5184 5183 5184 5191 5203 5216
5385 5382 5378 5375 5372 5369 5367 5364 5361 5356 5349 5344 5337 5331 5325 5317 5309 5300 5290 5279 5268 5258 5248 5240 5231 5223 5216 5209 5202 5197 5191 5186 5181 5178 5178 5185 5195 5209